Tracking 23114 objects as of 16-May-2021
HD Live streaming from Space Station
objects crossing your sky now

ONEWEB-0184

Track ONEWEB-0184 now!
10-day predictions
ONEWEB-0184 is classified as:


NORAD ID: 48211
Int'l Code: 2021-031B
Perigee: 480.6 km
Apogee: 493.8 km
Inclination: 87.4 °
Period: 94.2 minutes
Semi major axis: 6858 km
RCS: Unknown
Launch date: April 25, 2021
Source: United Kingdom (UK)
Launch site: VOSTOCHNY COSMODROME (VOSTO)
aabbcc
Your satellite tracking list
Your tracking list is empty




NASA's NSSDC Master Catalog

Two Line Element Set (TLE):
1 48211U 21031B   21136.58334491 -.01473721  00000-0 -58694-1 0  9993
2 48211  87.4175 305.8378 0009686 171.4052 104.8708 15.28578495  1837
Source of the keplerian elements: AFSPC